User: anonymous   Login
Location: Fishcreek Rd Observing Site
(41.1865°N, 81.4271°W)
Time: 04:24:05
(UTC-04:00)
Language:

Iridium 45 - Orbit

View from above orbital plane
View from above orbital plane
View from above satellite
View from above satellite

Ground track
Ground track

The orbit data is extracted from the following two-line orbital elements,

1 25104U 97082A   16147.47462196  .00000203  00000-0  65370-4 0  9996
2 25104  86.3965  88.9192 0003366  98.7221 261.4356 14.34217729964944
Epoch (UTC): 26 May 2016 11:23:27
Eccentricity: 0.0003366
inclination: 86.3965°
perigee height: 775 km
apogee height: 780 km
right ascension of ascending node: 88.9192°
argument of perigee: 98.7221°
revolutions per day: 14.34217729
mean anomaly at epoch: 261.4356°
orbit number at epoch: 96494

The dashed part of the orbit path shows where the satellite is in the earth's shadow,  

DLR